Wausau, WI

7:59 AM CST on November 22, 2017 (GMT -0600)
Wausau Downtown

Weather History for KAUW - August, 2013

Change the Weather History Date:

Wednesday, August 7, 2013

  Actual Average Record
Temperature  
Mean Temperature 64 °F 69 °F  
Max Temperature 76 °F 79 °F 95 °F (2001)
Min Temperature 51 °F 58 °F 45 °F (1975)
Degree Days  
Heating Degree Days 1 1  
Month to date heating degree days 7 7  
Since 1 June heating degree days 123 119  
Since 1 July heating degree days 37 30  
Cooling Degree Days 0 4  
Month to date cooling degree days 9 34  
Year to date cooling degree days 315 294  
Since 1 June cooling degree days 278 275  
Growing Degree Days 14 (Base 50)    
Moisture  
Dew Point 56 °F    
Average Humidity 69    
Maximum Humidity 97    
Minimum Humidity 41    
Precipitation  
Precipitation 0.01 in 0.14 in 1.48 in (2015)
Month to date precipitation 0.24 0.96  
Year to date precipitation 24.34 19.01  
Snow  
Snow 0.00 in 0.00 in 0.00 in ()
Month to date snowfall 0.0 0.0  
Since 1 June snowfall 0.0  
Since 1 July snowfall 0.0 0.0  
Snow Depth 0.00 in    
Sea Level Pressure  
Sea Level Pressure 29.83 in    
Wind  
Wind Speed 6 mph (NNW)    
Max Wind Speed 14 mph    
Max Gust Speed 18 mph    
Visibility 10 miles    
Events Rain , Thunderstorm    
T = Trace of Precipitation, MM = Missing Value Source: NWS Daily Summary

Daily Weather History Graph

Daily Weather History Graph

Search for Another Location

Airport or City:

Trip Planner

Search our weather history database for the weather conditions in past years. The results will help you decide how hot, cold, wet, or windy it might be!

Date:

Astronomy

Aug. 07, 2013 Rise Set
Actual Time 5:51 AM CDT 8:16 PM CDT
Civil Twilight 5:18 AM CDT 8:49 PM CDT
Nautical Twilight 4:37 AM CDT 9:29 PM CDT
Astronomical Twilight 3:50 AM CDT 10:15 PM CDT
Moon 6:44 AM CDT (8/7) 8:17 PM CDT (8/7)
Length of Visible Light 15h 30m
Length of Day
14h 25m
New Moon, 1% of the Moon is Illuminated
Aug 7
New Moon
Aug 14
First Quarter
Aug 20
Full
Aug 28
Last Quarter
Sep 5
New

Hourly Weather History & Observations

Time (CDT) Temp. Dew Point Humidity Pressure Visibility Wind Dir Wind Speed Gust Speed Precip Events Conditions
12:05 AM 60.8 °F 59.0 °F 94% 29.77 in 10.0 mi East 4.6 mph - 0.00 in Rain , Thunderstorm Light Rain
12:23 AM 60.8 °F 59.0 °F 94% 29.76 in 10.0 mi SSE 13.8 mph - 0.01 in Rain Light Rain
12:30 AM 60.8 °F 59.0 °F 94% 29.75 in 10.0 mi SE 12.7 mph - 0.01 in Rain Light Rain
12:54 AM 60.1 °F 59.0 °F 96% 29.75 in 10.0 mi East 5.8 mph - 0.01 in   Scattered Clouds
1:52 AM 60.8 °F 59.0 °F 94% 29.77 in 10.0 mi SSW 8.1 mph - N/A   Partly Cloudy
1:54 AM 61.0 °F 59.0 °F 93% 29.77 in 10.0 mi SSW 5.8 mph - N/A   Scattered Clouds
2:05 AM 60.8 °F 59.0 °F 94% 29.77 in 10.0 mi SSW 3.5 mph - N/A   Mostly Cloudy
2:23 AM 60.8 °F 59.0 °F 94% 29.76 in 10.0 mi Calm Calm - N/A   Mostly Cloudy
2:38 AM 60.8 °F 57.2 °F 88% 29.76 in 10.0 mi Calm Calm - N/A   Scattered Clouds
2:54 AM 59.0 °F 57.9 °F 96% 29.76 in 10.0 mi Calm Calm - 0.01 in   Scattered Clouds
3:08 AM 60.8 °F 59.0 °F 94% 29.76 in 10.0 mi Calm Calm - N/A   Mostly Cloudy
3:23 AM 60.8 °F 59.0 °F 94% 29.76 in 10.0 mi Calm Calm - N/A   Scattered Clouds
3:54 AM 59.0 °F 57.9 °F 96% 29.76 in 7.0 mi Calm Calm - N/A   Scattered Clouds
4:02 AM 60.8 °F 59.0 °F 94% 29.76 in 9.0 mi Calm Calm - N/A   Mostly Cloudy
4:54 AM 61.0 °F 59.0 °F 93% 29.76 in 10.0 mi NW 8.1 mph - N/A   Overcast
5:25 AM 60.8 °F 59.0 °F 94% 29.77 in 10.0 mi NNW 9.2 mph - N/A   Overcast
5:54 AM 61.0 °F 59.0 °F 93% 29.77 in 10.0 mi NW 4.6 mph - N/A   Overcast
6:33 AM 60.8 °F 59.0 °F 94% 29.78 in 10.0 mi NW 5.8 mph - N/A   Overcast
6:54 AM 61.0 °F 59.0 °F 93% 29.79 in 9.0 mi WNW 6.9 mph - N/A   Overcast
7:54 AM 63.0 °F 60.1 °F 90% 29.82 in 10.0 mi NW 6.9 mph - N/A   Overcast
8:07 AM 62.6 °F 60.8 °F 94% 29.82 in 10.0 mi NW 5.8 mph - N/A   Overcast
8:54 AM 64.0 °F 60.1 °F 87% 29.83 in 10.0 mi NW 8.1 mph - N/A   Overcast
9:54 AM 66.0 °F 59.0 °F 78% 29.85 in 10.0 mi North 6.9 mph - N/A   Overcast
10:54 AM 69.1 °F 57.9 °F 68% 29.87 in 10.0 mi NNW 6.9 mph - N/A   Overcast
11:03 AM 68.0 °F 57.2 °F 68% 29.87 in 10.0 mi NNW 10.4 mph 16.1 mph N/A   Overcast
11:54 AM 69.1 °F 55.9 °F 63% 29.89 in 10.0 mi North 6.9 mph 18.4 mph N/A   Overcast
12:54 PM 72.0 °F 55.9 °F 57% 29.91 in 10.0 mi NNW 9.2 mph - N/A   Overcast
1:54 PM 73.9 °F 57.0 °F 55% 29.91 in 10.0 mi North 10.4 mph - N/A   Mostly Cloudy
5:54 PM 73.9 °F 48.9 °F 41% 29.92 in 10.0 mi North 11.5 mph 17.3 mph N/A   Clear
6:54 PM 72.0 °F 46.9 °F 41% 29.94 in 10.0 mi NNW 9.2 mph - N/A   Clear
7:54 PM 68.0 °F 46.0 °F 45% 29.96 in 10.0 mi North 5.8 mph - N/A   Clear
8:54 PM 64.0 °F 46.9 °F 54% 30.00 in 10.0 mi Calm Calm - N/A   Clear
9:54 PM 60.1 °F 48.0 °F 64% 30.02 in 10.0 mi Calm Calm - N/A   Clear
10:54 PM 55.9 °F 48.9 °F 77% 30.03 in 10.0 mi Calm Calm - N/A   Clear
11:54 PM 54.0 °F 48.9 °F 83% 30.04 in 10.0 mi Calm Calm - N/A   Clear